Location: Unspecified
(0.0000°N, 0.0000°E)
Time: 07:02:26
(UTC+00:00)

Transit 2A - Pass Details

Date: 21 November 2019
Orbit: 602 x 957 km, 66.7° (Epoch: 11 December)

Event Time Altitude Azimuth Distance (km) Brightness Sun altitude
Rises 08:48:05 0° 169° (SSE) 3,540 9.8 42.2°
Reaches altitude 10° 08:51:50 10° 146° (SSE) 2,535 9.6 43.0°
Maximum altitude 08:55:04 15° 113° (ESE) 2,128 9.6 43.7°
Drops below altitude 10° 08:58:10 10° 79° (ENE) 2,403 9.3 44.4°
Sets 09:01:32 0° 56° (NE) 3,251 9.5 45.2°
